Location: Aressy
(43.2833°N, 0.3167°W)
Time: 01:29:06
(UTC+00:00)

Cosmos 44 Rocket - Pass Details

Date: 28 January 2021
Orbit: 637 x 753 km, 65.1° (Epoch: 08 March)

Event Time Altitude Azimuth Distance (km) Brightness Sun altitude
Rises 18:14:02 0° 185° (S) 3,017 6.8 -12.2°
Reaches altitude 10° 18:16:30 10° 175° (S) 2,126 5.9 -12.6°
Maximum altitude 18:20:46 32° 113° (ESE) 1,199 4.1 -13.4°
Enters shadow 18:23:19 20° 66° (ENE) 1,609 4.6 -13.8°
